GAOFEN-5 01

Last updated on Tue Sep 15 2026 00:02:55 GMT+0000 (Coordinated Universal Time)

1 43461U 18043A 26257.39076704 .00000214 00000+0 54108-4 0 9990 2 43461 98.4686 230.9016 0002389 132.4855 227.6547 14.60656590444717
UTC large
Height (km)
Speed (km/s)
/
Latitude / Longitude
Inclination (degrees)
Orbital Period (minutes)
Azimuth
Elevation
Range (km)
Doppler Factor

Next 0 passes for location: London (51.5072 / 0.1276)

No passes found over London.
GAOFEN-5 01